Wind_Speed
44 41 41 39 40 39 38 37 37 26 33 36 38 40 36 34 34 37 36 36 36 33 32 28 26 26 26 27 28 29 28 26
51 49 48 45 44 41 42 41 41 37 31 34 37 36 44 40 37 37 38 34 35 38 36 29 27 25 25 22 26 30 30 28
57 56 54 53 50 48 47 45 42 41 37 38 41 41 37 40 31 40 42 43 35 34 34 31 29 26 26 27 28 29 30 31
62 61 60 59 57 55 53 49 46 47 43 43 41 44 44 42 32 43 35 40 38 38 35 33 31 28 27 25 26 27 30 32
68 67 67 65 64 61 58 55 52 50 49 47 44 44 41 35 34 33 31 41 41 41 40 37 36 32 29 30 29 28 28 31
71 72 72 71 70 69 66 62 59 56 53 53 49 49 43 42 38 31 34 39 27 43 41 39 35 35 36 35 32 32 31 33
76 76 75 75 74 74 73 70 66 62 59 56 55 51 52 43 45 36 32 37 35 36 32 35 42 41 41 40 39 40 39 39
77 79 81 80 78 77 77 76 73 69 65 62 59 56 49 50 44 43 37 38 38 37 40 42 38 43 41 43 43 43 41 38
70 76 80 83 84 82 78 78 78 75 71 67 64 62 60 53 41 39 36 37 39 38 41 46 40 46 42 44 41 42 42 40
66 68 74 81 83 87 85 81 79 79 76 73 69 68 61 52 52 45 42 43 41 42 42 44 46 42 43 46 45 43 45 43
52 61 68 73 79 84 87 88 84 81 79 76 73 69 63 58 53 54 49 47 45 44 44 49 43 42 49 57 47 45 47 43
44 47 53 64 72 78 84 86 88 86 81 78 76 71 66 62 58 57 56 47 50 39 43 54 46 51 38 50 54 53 46 41
52 54 55 57 60 72 80 83 87 88 85 80 77 73 68 65 62 61 57 50 45 25 47 31 35 43 37 37 44 52 53 48
30 34 49 58 61 63 73 83 84 88 87 83 78 73 70 67 62 62 58 57 61 56 51 45 35 40 47 41 20 40 45 28
25 30 30 29 40 56 59 74 84 82 86 84 80 75 70 65 64 63 60 57 57 54 45 50 50 40 41 35 37 31 32 34
15 18 22 28 24 27 35 48 73 79 78 80 79 78 68 66 61 61 57 53 51 47 45 42 39 39 40 36 35 35 30 29
13 12 16 15 21 29 28 37 48 70 71 73 71 74 67 64 61 58 54 51 45 43 44 41 41 38 40 40 42 42 41 41
14 14 8 9 6 9 18 14 39 55 59 60 62 62 57 48 55 53 47 43 41 41 41 42 47 41 43 44 43 43 47 48
12 15 16 4 8 2 17 17 27 42 46 45 48 52 56 48 46 47 47 39 37 39 41 41 42 42 43 44 45 47 49 51
Wind_Direction
240 237 237 234 237 242 247 252 258 227 229 236 238 235 245 239 245 247 245 238 236 228 225 231 236 235 235 236 236 238 240 242
244 242 239 237 239 239 240 245 253 259 248 242 246 229 240 248 245 249 250 250 247 245 227 225 232 235 236 243 245 242 242 246
242 243 244 243 240 241 243 245 247 253 254 247 245 245 254 232 244 249 246 253 243 239 241 238 236 240 243 239 239 242 244 247
240 241 241 243 243 241 242 243 245 248 248 252 247 247 247 249 254 253 227 228 231 238 235 236 237 238 240 242 244 244 245 248
240 239 239 240 242 243 243 242 242 244 247 248 249 252 252 251 254 252 248 221 232 229 236 234 240 241 242 246 248 250 252 252
240 239 239 238 238 241 242 242 243 242 245 248 249 252 250 248 250 248 236 235 253 226 233 238 240 245 246 248 250 251 251 253
242 241 239 238 237 237 240 241 241 241 242 244 247 249 243 246 241 244 241 241 244 249 251 247 250 249 253 256 256 257 258 254
243 241 241 240 238 237 236 239 240 240 240 243 245 246 253 231 243 238 239 245 250 251 254 251 252 246 255 258 258 260 264 264
247 245 241 240 239 237 236 235 237 239 239 240 242 246 248 251 250 239 243 246 249 250 252 250 257 248 257 263 257 259 262 255
249 245 244 242 239 238 236 234 234 236 238 239 240 243 246 246 249 252 249 250 248 249 251 254 256 257 258 263 255 258 257 261
255 253 249 244 242 239 237 235 233 233 234 237 238 240 243 244 244 247 248 250 252 250 252 255 259 266 263 263 260 250 252 263
264 264 257 250 246 241 238 236 233 231 232 234 236 237 239 243 244 246 247 251 250 246 264 243 247 249 268 262 249 252 253 248
265 264 259 254 250 245 239 235 234 231 229 230 233 235 236 239 242 244 248 249 251 260 249 255 256 254 253 267 263 257 244 253
275 269 259 255 248 245 241 235 232 231 228 227 229 233 234 236 239 243 246 246 247 260 260 271 275 266 258 268 270 248 243 269
281 272 265 266 253 244 241 237 230 229 228 226 226 229 232 233 237 241 246 249 253 258 267 269 274 271 275 261 261 274 258 257
304 288 273 247 246 233 231 233 227 224 225 224 224 225 229 232 234 240 244 249 251 254 261 265 269 268 270 266 263 265 270 271
317 298 299 278 253 255 247 230 217 215 219 221 223 224 227 229 232 239 241 245 248 252 255 262 267 271 272 270 266 271 270 270
321 338 319 313 268 196 176 176 198 199 209 213 217 219 219 230 233 233 233 239 245 250 255 257 258 264 267 269 269 269 269 272
9 2 5 129 129 70 166 158 180 185 188 200 210 214 214 211 218 228 229 236 241 249 255 259 263 267 273 277 280 279 277 278
Height
5791 5795 5796 5799 5802 5804 5806 5805 5794 5787 5803 5809 5812 5815 5817 5821 5824 5828 5831 5833 5833 5833 5834 5837 5840 5843 5844 5847 5848 5850 5852 5853
5780 5784 5788 5791 5793 5796 5798 5798 5797 5798 5801 5804 5801 5805 5810 5814 5816 5818 5820 5824 5826 5828 5829 5832 5835 5837 5840 5841 5844 5846 5847 5849
5769 5773 5776 5779 5783 5786 5789 5791 5792 5793 5796 5798 5801 5801 5804 5806 5808 5812 5812 5816 5821 5823 5825 5826 5828 5832 5835 5837 5838 5840 5841 5844
5756 5759 5763 5766 5770 5774 5778 5783 5785 5786 5789 5790 5795 5796 5797 5800 5803 5806 5805 5807 5812 5816 5819 5821 5824 5826 5829 5831 5833 5834 5836 5837
5740 5744 5749 5753 5757 5761 5766 5770 5775 5778 5780 5782 5787 5789 5790 5796 5797 5798 5796 5799 5805 5810 5813 5816 5818 5820 5823 5825 5827 5829 5830 5831
5723 5727 5732 5737 5743 5747 5752 5758 5763 5768 5771 5772 5777 5780 5784 5788 5790 5793 5795 5797 5800 5803 5807 5810 5812 5815 5817 5819 5821 5822 5824 5825
5703 5708 5714 5720 5726 5733 5737 5743 5749 5755 5761 5763 5767 5772 5771 5777 5781 5785 5789 5792 5796 5800 5801 5804 5806 5808 5810 5812 5812 5815 5816 5818
5682 5687 5693 5700 5707 5714 5722 5728 5734 5742 5748 5752 5757 5762 5760 5759 5772 5777 5780 5784 5789 5792 5793 5795 5798 5801 5803 5804 5804 5807 5809 5809
5662 5666 5672 5679 5686 5695 5703 5712 5719 5727 5734 5740 5745 5749 5751 5756 5764 5768 5771 5776 5781 5784 5785 5786 5790 5792 5794 5795 5797 5799 5799 5801
5643 5647 5652 5658 5664 5672 5683 5693 5703 5711 5720 5727 5733 5737 5743 5751 5755 5758 5763 5768 5772 5775 5778 5779 5782 5783 5786 5786 5789 5791 5792 5793
5626 5629 5633 5637 5643 5650 5659 5671 5683 5694 5704 5712 5720 5726 5734 5741 5747 5751 5755 5760 5762 5765 5769 5771 5772 5774 5775 5775 5778 5782 5782 5785
5615 5615 5615 5617 5622 5628 5638 5649 5662 5675 5687 5697 5705 5714 5722 5729 5736 5740 5746 5752 5754 5751 5756 5756 5761 5763 5760 5763 5767 5770 5774 5776
5598 5598 5598 5598 5601 5606 5615 5626 5639 5655 5670 5682 5691 5701 5710 5718 5725 5730 5735 5741 5744 5737 5748 5749 5748 5753 5754 5757 5758 5761 5763 5765
5582 5579 5577 5577 5580 5585 5591 5604 5618 5634 5651 5666 5678 5687 5698 5706 5714 5718 5725 5731 5734 5733 5736 5737 5741 5745 5748 5748 5747 5749 5754 5754
5574 5569 5564 5560 5559 5564 5570 5580 5597 5614 5632 5649 5663 5675 5685 5695 5702 5708 5714 5720 5724 5727 5729 5733 5734 5737 5739 5740 5742 5743 5745 5747
5566 5560 5556 5553 5553 5553 5556 5561 5576 5597 5615 5634 5648 5661 5674 5684 5691 5699 5705 5709 5715 5720 5722 5723 5725 5729 5731 5733 5734 5737 5738 5739
5565 5559 5555 5549 5547 5546 5547 5550 5558 5581 5602 5621 5638 5651 5664 5673 5681 5690 5696 5701 5706 5710 5714 5716 5717 5720 5722 5724 5728 5729 5731 5733
5563 5558 5553 5549 5546 5544 5545 5550 5557 5574 5594 5611 5628 5643 5657 5666 5673 5681 5688 5693 5696 5700 5703 5706 5710 5712 5712 5715 5718 5721 5723 5724
5567 5561 5556 5553 5551 5550 5552 5557 5567 5579 5595 5608 5622 5636 5650 5654 5663 5672 5679 5685 5688 5693 5697 5698 5702 5702 5704 5705 5707 5709 5710 5711